Previsão horária em Alhimovo

Hoje, 27 Novembro, Sexta-feira

Tempo Temperatura Precipitação Vento Pressão Humidade
00:00 -2°C° 0 mm 5 m/s 735 mmHg 91%
01:00 -2°C° 0 mm 4 m/s 735 mmHg 90%
02:00 -2°C° 0 mm 4 m/s 734 mmHg 90%
03:00 -2°C° 0 mm 4 m/s 734 mmHg 90%
04:00 -2°C° 0 mm 4 m/s 734 mmHg 90%
05:00 -2°C° 0 mm 4 m/s 733 mmHg 90%
06:00 -2°C° 0 mm 4 m/s 733 mmHg 90%
07:00 -2°C° 0 mm 4 m/s 733 mmHg 91%
08:00 -1°C° 0 mm 3 m/s 733 mmHg 91%
09:00 -1°C° 0.2 mm 3 m/s 733 mmHg 92%
10:00 -1°C° 0.2 mm 3 m/s 733 mmHg 93%
11:00 -1°C° 0.2 mm 3 m/s 733 mmHg 94%
12:00 -1°C° 0.5 mm 3 m/s 733 mmHg 95%
13:00 -1°C° 0.5 mm 3 m/s 732 mmHg 96%
14:00 -1°C° 0.5 mm 3 m/s 732 mmHg 97%
15:00 -1°C° 0.4 mm 3 m/s 732 mmHg 97%
16:00 -1°C° 0.4 mm 3 m/s 732 mmHg 97%
17:00 -2°C° 0.4 mm 2 m/s 732 mmHg 98%
18:00 -1°C° 0.2 mm 2 m/s 732 mmHg 98%
19:00 -1°C° 0.2 mm 2 m/s 733 mmHg 98%
20:00 -1°C° 0.2 mm 2 m/s 733 mmHg 98%
21:00 +1°C° 0.2 mm 2 m/s 733 mmHg 98%
22:00 +1°C° 0.2 mm 2 m/s 734 mmHg 98%
23:00 +1°C° 0.2 mm 2 m/s 734 mmHg 98%

Amanhã, 28 Novembro, Sábado

Tempo Temperatura Precipitação Vento Pressão Humidade
00:00 +1°C° 0.1 mm 2 m/s 735 mmHg 98%
01:00 +1°C° 0.1 mm 2 m/s 735 mmHg 98%
02:00 +2°C° 0.1 mm 1 m/s 736 mmHg 98%
03:00 +1°C° 0.2 mm 2 m/s 736 mmHg 98%
04:00 +1°C° 0.2 mm 2 m/s 736 mmHg 98%
05:00 +1°C° 0.2 mm 2 m/s 737 mmHg 98%
06:00 -1°C° 0.1 mm 2 m/s 737 mmHg 97%
07:00 -1°C° 0.1 mm 2 m/s 738 mmHg 97%
08:00 -2°C° 0.1 mm 2 m/s 739 mmHg 96%
09:00 +1°C° 0 mm 1 m/s 739 mmHg 95%
10:00 +1°C° 0 mm 1 m/s 740 mmHg 94%
11:00 +1°C° 0 mm 1 m/s 740 mmHg 92%
12:00 +1°C° 0 mm 1 m/s 741 mmHg 92%
13:00 0°C° 0 mm 0 m/s 741 mmHg 92%
14:00 0°C° 0 mm 0 m/s 741 mmHg 92%
15:00 0°C° 0 mm 1 m/s 742 mmHg 93%
16:00 0°C° 0 mm 1 m/s 742 mmHg 94%
17:00 -1°C° 0 mm 1 m/s 742 mmHg 95%
18:00 0°C° 0 mm 1 m/s 743 mmHg 96%
19:00 0°C° 0 mm 1 m/s 743 mmHg 96%
20:00 0°C° 0 mm 1 m/s 744 mmHg 97%
21:00 0°C° 0.1 mm 1 m/s 744 mmHg 97%
22:00 -2°C° 0.1 mm 2 m/s 744 mmHg 98%
23:00 -1°C° 0.1 mm 2 m/s 744 mmHg 98%

Depois de amanhã, 29 Novembro, Domingo

Tempo Temperatura Precipitação Vento Pressão Humidade
00:00 -1°C° 0.1 mm 2 m/s 744 mmHg 98%
01:00 -1°C° 0.1 mm 3 m/s 744 mmHg 97%
02:00 -1°C° 0.1 mm 3 m/s 744 mmHg 97%
03:00 -1°C° 0 mm 3 m/s 744 mmHg 97%
04:00 -2°C° 0 mm 4 m/s 744 mmHg 96%
05:00 -2°C° 0 mm 4 m/s 743 mmHg 96%
06:00 -2°C° 0.1 mm 4 m/s 743 mmHg 96%
07:00 -2°C° 0.1 mm 4 m/s 743 mmHg 96%
08:00 -2°C° 0.1 mm 4 m/s 743 mmHg 97%
09:00 -2°C° 0.4 mm 4 m/s 743 mmHg 97%
10:00 -1°C° 0.4 mm 4 m/s 743 mmHg 98%
11:00 0°C° 0.4 mm 4 m/s 743 mmHg 98%
12:00 0°C° 0.3 mm 5 m/s 743 mmHg 98%
13:00 0°C° 0.3 mm 5 m/s 743 mmHg 97%
14:00 -2°C° 0.3 mm 6 m/s 743 mmHg 97%
15:00 -2°C° 0.4 mm 6 m/s 743 mmHg 97%
16:00 -1°C° 0.4 mm 6 m/s 742 mmHg 97%
17:00 -1°C° 0.4 mm 6 m/s 742 mmHg 97%
18:00 -1°C° 0.2 mm 6 m/s 742 mmHg 96%
19:00 -1°C° 0.2 mm 6 m/s 742 mmHg 95%
20:00 0°C° 0.2 mm 5 m/s 742 mmHg 95%
21:00 +1°C° 0.2 mm 6 m/s 742 mmHg 94%
22:00 +1°C° 0.2 mm 6 m/s 742 mmHg 94%
23:00 +1°C° 0.2 mm 6 m/s 742 mmHg 93%

30 Novembro, Segunda-feira

Tempo Temperatura Precipitação Vento Pressão Humidade
00:00 +1°C° 0.4 mm 6 m/s 743 mmHg 94%
01:00 +1°C° 0.4 mm 6 m/s 743 mmHg 94%
02:00 +1°C° 0.4 mm 6 m/s 743 mmHg 94%
03:00 +1°C° 0.7 mm 5 m/s 743 mmHg 95%
04:00 +1°C° 0.7 mm 5 m/s 743 mmHg 95%
05:00 +1°C° 0.7 mm 5 m/s 743 mmHg 96%
06:00 +1°C° 0.7 mm 5 m/s 743 mmHg 96%
07:00 0°C° 0.7 mm 4 m/s 744 mmHg 96%
08:00 0°C° 0.7 mm 4 m/s 744 mmHg 97%
09:00 0°C° 0.5 mm 4 m/s 744 mmHg 97%
10:00 0°C° 0.5 mm 3 m/s 744 mmHg 96%
11:00 0°C° 0.5 mm 3 m/s 745 mmHg 96%
12:00 +1°C° 0.2 mm 2 m/s 745 mmHg 95%
13:00 +1°C° 0.2 mm 2 m/s 745 mmHg 94%
14:00 +1°C° 0.2 mm 2 m/s 745 mmHg 93%
15:00 -1°C° 0 mm 2 m/s 745 mmHg 93%
16:00 -1°C° 0 mm 2 m/s 745 mmHg 92%
17:00 -1°C° 0 mm 2 m/s 745 mmHg 92%
18:00 -1°C° 0 mm 2 m/s 746 mmHg 92%
19:00 -1°C° 0 mm 2 m/s 746 mmHg 92%
20:00 -2°C° 0 mm 2 m/s 746 mmHg 92%
21:00 -2°C° 0 mm 2 m/s 746 mmHg 91%
22:00 -2°C° 0 mm 2 m/s 746 mmHg 90%
23:00 -2°C° 0 mm 2 m/s 747 mmHg 90%

1 Dezembro, Terça-feira

Tempo Temperatura Precipitação Vento Pressão Humidade
00:00 -2°C° 0 mm 2 m/s 747 mmHg 89%
01:00 -2°C° 0 mm 2 m/s 747 mmHg 88%
02:00 -2°C° 0 mm 2 m/s 747 mmHg 87%
03:00 0°C° 0 mm 1 m/s 747 mmHg 88%
04:00 -1°C° 0 mm 1 m/s 747 mmHg 88%
05:00 -1°C° 0 mm 1 m/s 747 mmHg 89%
06:00 -1°C° 0 mm 1 m/s 747 mmHg 89%
07:00 -1°C° 0 mm 1 m/s 748 mmHg 89%
08:00 -1°C° 0 mm 1 m/s 748 mmHg 89%
09:00 -1°C° 0 mm 1 m/s 748 mmHg 86%
10:00 0°C° 0 mm 1 m/s 748 mmHg 83%
11:00 -1°C° 0 mm 0 m/s 748 mmHg 80%
12:00 0°C° 0 mm 1 m/s 748 mmHg 82%
13:00 0°C° 0 mm 1 m/s 748 mmHg 84%
14:00 0°C° 0 mm 1 m/s 748 mmHg 86%
15:00 0°C° 0.1 mm 1 m/s 748 mmHg 90%
16:00 0°C° 0.1 mm 1 m/s 748 mmHg 93%
17:00 -2°C° 0.1 mm 2 m/s 749 mmHg 96%
18:00 -2°C° 0.1 mm 2 m/s 749 mmHg 96%
19:00 -1°C° 0.1 mm 3 m/s 749 mmHg 97%
20:00 -1°C° 0.1 mm 3 m/s 749 mmHg 97%
21:00 -2°C° 0.2 mm 3 m/s 749 mmHg 96%
22:00 -2°C° 0.2 mm 3 m/s 749 mmHg 96%
23:00 -2°C° 0.2 mm 3 m/s 749 mmHg 95%

2 Dezembro, Quarta-feira

Tempo Temperatura Precipitação Vento Pressão Humidade
00:00 -2°C° 0.1 mm 3 m/s 749 mmHg 93%
01:00 -4°C° 0.1 mm 3 m/s 749 mmHg 92%
02:00 -4°C° 0.1 mm 3 m/s 749 mmHg 90%
03:00 -4°C° 0 mm 3 m/s 749 mmHg 89%
04:00 -4°C° 0 mm 3 m/s 749 mmHg 88%
05:00 -5°C° 0 mm 3 m/s 749 mmHg 88%
06:00 -5°C° 0 mm 3 m/s 749 mmHg 87%
07:00 -5°C° 0 mm 3 m/s 750 mmHg 86%
08:00 -5°C° 0 mm 3 m/s 750 mmHg 85%
09:00 -5°C° 0 mm 4 m/s 750 mmHg 83%
10:00 -4°C° 0 mm 4 m/s 750 mmHg 81%
11:00 -4°C° 0 mm 4 m/s 750 mmHg 79%
12:00 -4°C° 0 mm 4 m/s 750 mmHg 80%
13:00 -4°C° 0 mm 4 m/s 750 mmHg 80%
14:00 -4°C° 0 mm 4 m/s 750 mmHg 80%
15:00 -4°C° 0 mm 4 m/s 750 mmHg 81%
16:00 -5°C° 0 mm 4 m/s 750 mmHg 82%
17:00 -5°C° 0 mm 4 m/s 750 mmHg 83%
18:00 -5°C° 0 mm 4 m/s 750 mmHg 83%
19:00 -5°C° 0 mm 4 m/s 751 mmHg 83%
20:00 -5°C° 0 mm 4 m/s 751 mmHg 82%
21:00 -5°C° 0 mm 4 m/s 751 mmHg 82%
22:00 -6°C° 0 mm 3 m/s 751 mmHg 82%
23:00 -6°C° 0 mm 3 m/s 751 mmHg 81%
Mostrar mais